STARLINK-11516, 62522

Orbit data source: Space-Track

STARLINK-11516, 62522 is a payload satellite owned by SpaceX/Seattle (US) in LEO that was launched on Wed, 08 Jan 2025 UTC via an FALCON 9 launch vehicle from the Air Force Eastern Test Range (AFETR). Payload-class satellites include a variety of spacecraft equipped with specific instruments for various scientific and technological missions. These include communications satellites like Starlink; space stations such as the ISS; scientific satellites like the Hubble; Earth observation satellites from companies like Planet Labs, Umbra, and HawkEye 360; GPS; miniature CubeSats for education and research; and military/defense satellites.

Loading next visibility...
Identifier
62522, 2025-004M
Orbit
LEO
Last TLE update
6 hours ago
Origin
Manufacturer
SpaceX/Seattle
Mission
Operational Commercial Communications
Bus & Motor
STARLINK V2M, Unknown motor
Mass
730 kg wet, ~700 kg dry
Launch date (UTC)
2025-01-08 (6 months ago)
Launch vehicle
FALCON 9
Launch site
Air Force Eastern Test Range (AFETR)
Object type
Payload
Rocket body
Debris
Shape & HBR
Box + 2 Pan, 29 m
Radar Cross Section
36.964 m², Large (>1 m²)

Expand to show TLE details & history

TLE from 6 hours ago
0 STARLINK-11516
1 62522U 25004M   25182.17997932  .00163619  00000-0  12517-2 0  9997
2 62522  43.0003 146.6491 0001370 257.6772 102.3942 15.70877555 28288
Epoch: 2025-07-01T04:19Z
TLE epoch observation values (Epoch: 2025-07-01T04:19:10.213Z)
Latitude
-0.00003°
Longitude
162.37738°
Altitude
356.357 km
Speed
7.697 km/s
True Right ascension
09h 46m 35s
True Declination
0° 00' 00"
Sunlit
Object was in daylight at epoch
Visualization orbit readout
Latitude
-24.9643°
Longitude
10.75925°
Altitude
361.606 km
Speed
7.693 km/s
Apparent Right ascension
03h 12m 28s
Apparent Declination
-64° 06' 28"
Sunlit
Object is in full shadow
Visualization observer readout
Local Sidereal Time
21:27:35
Azimuth
148.407° SSE
Elevation
-33.722°
Doppler factor
1
Orbital elements
Apogee altitude
359.292 km
Perigee altitude
357.446 km
Semi-major axis
6,736.506 km
Eccentricity
0.00014
Inclination
43.0003°
RAAN
146.6491°
Arg. of periapsis
257.6772°
True anomaly
Unknown
Mean anomaly
102.3942°
Eccentric anomaly
Unknown
Mean motion
3.92546 °/min
Orbital period
91.71 mins
BSTAR
0.0012517
Loading maneuver chart data...
Loading SW <> Apogee altitude chart data...
Loading historical data...
Loading historical data...
Loading historical data...
Loading historical data...
Loading historical data...
Loading historical data...
Loading historical data...

STARLINK-11516 Visibility forecast

Observer location: undefined°, undefined°

Span
Click to sort rows by Start time (UTC) header in descending order
Start Az.
Max El. time (UTC)
Max El. Az.
Max El.
End time (UTC)
End Az.
4 mins2025-07-02 01:57:14.744Z251.817° W2025-07-02 01:58:14.744Z253.235° W41.52°2025-07-02 02:01:14.744Z71.67° E
4 mins2025-07-02 03:33:14.744Z295.087° NW2025-07-02 03:35:14.744Z20.568° NNE33.182°2025-07-02 03:37:14.744Z69.532° E
|